User: anonymous   Login
Location: Unspecified
(0.0000°N, 0.0000°E)
Time: 18:31:07
(UTC+00:00)
Language:

PAYLOAD B - Orbit

View from above orbital plane
View from above orbital plane
View from above satellite
View from above satellite

Ground track
Ground track

The orbit data is extracted from the following two-line orbital elements,

1 27056U 01058B   21025.72223786 -.00000012  00000-0 -12681-3 0  9997
2 27056  82.5374  38.6768 0005935   4.0918 356.0220 12.60512113877937
Epoch (UTC): 25 January 2021 17:20:01
Eccentricity: 0.0005935
inclination: 82.5374°
perigee height: 1416 km
apogee height: 1425 km
right ascension of ascending node: 38.6768°
argument of perigee: 4.0918°
revolutions per day: 12.60512113
mean anomaly at epoch: 356.0220°
orbit number at epoch: 87793

The dashed part of the orbit path shows where the satellite is in the earth's shadow,  

DLR